Regional Weather Roundup
Issued by NWS Kansas City/Pleasant Hill, MO

Home | Current Version | Previous Version | Text Only | Print | Product List | Glossary On
Versions: 1 2 3 4 5 6 7 8 9 10 11 12 13 14 15 16 17 18 19 20 21 22 23 24 25 26 27 28 29 30 31 32 33 34 35 36 37 38 39 40 41 42 43 44 45 46 47 48 49 50
000
ASUS43 KEAX 020810
RWREAX

WEATHER ROUNDUP FOR EASTERN KANSAS AND NORTHWEST MISSOURI
NATIONAL WEATHER SERVICE KANSAS CITY/PLEASANT HILL MO
300 AM CDT MON MAY 02 2016

KSZ040-057-103>105-MOZ028-029-037-043-020900-
...KANSAS CITY METROPOLITAN AREA...

CITY           SKY/WX    TMP DP  RH WIND       PRES   REMARKS
K.C. INTL      CLOUDY    48  44  86 W7        30.13S
K.C. DOWNTOWN  CLOUDY    50  45  83 NW6       30.13S
LEES SUMMIT    CLOUDY    49  44  83 NW6       30.12F
OLATHE - IXD   CLOUDY    48  44  86 NW9       30.13F
OLATHE - OJC   CLOUDY    48  43  82 N9        30.12F
LAWRENCE       CLOUDY    48  44  86 W7        30.14F

$$

MOZ001>008-011>017-020>025-030>033-038>040-044>046-053-054-020900-
...NORTHERN AND CENTRAL MISSOURI...

CITY           SKY/WX    TMP DP  RH WIND       PRES   REMARKS
ST. JOSEPH     CLOUDY    49  44  83 N6        30.13F
MOSBY          CLOUDY    50  45  81 W3        30.13S
WARRENSBURG    CLOUDY    50  45  81 NW6       30.11F
WHITEMAN AFB   CLOUDY    50  49  96 N3        30.09F
CLINTON        CLOUDY    48  46  93 N5        30.11F
SEDALIA        CLOUDY    51  45  79 N5        30.10F
WARSAW         NOT AVBL
CHILLICOTHE      N/A     50  46  86 CALM      30.12F
KIRKSVILLE     CLOUDY    48  46  93 NW6       30.10S

$$

MOZ041-047>049-056>058-063>065-088>090-097-020900-
...EASTERN AND SOUTHERN MISSOURI...

CITY           SKY/WX    TMP DP  RH WIND       PRES   REMARKS
ST. LOUIS INTL CLOUDY    54  47  77 NW12      30.05R
SPIRIT OF STL  CLOUDY    53  48  83 NW10      30.05R
COLUMBIA       CLOUDY    51  44  77 NW8       30.09F
JEFFERSON CITY CLOUDY    52  44  74 NW8       30.09F
ROLLA          CLOUDY    49  45  86 NW10      30.05F
OSAGE BEACH    CLOUDY    48  37  66 NW3       30.08F
SPRINGFIELD    CLOUDY    52  47  83 N8        30.08R
JOPLIN         LGT RAIN  50  47  89 N8        30.10F
WEST PLAINS    CLOUDY    52  46  80 N7        30.08R

$$

IAZ060-094-KSZ022-034>040-054-083-096-NEZ052-066-093-020900-
...KANSAS...SOUTHEAST NEBRASKA AND IOWA...

CITY           SKY/WX    TMP DP  RH WIND       PRES   REMARKS
TOPEKA         CLOUDY    49  43  80 NW5       30.15F
MANHATTAN      CLOUDY    49  42  77 CALM      30.16F
EMPORIA        CLOUDY    47  43  86 N8        30.14F
CHANUTE        CLOUDY    51  44  77 N7        30.12F
WICHITA        CLOUDY    48  42  80 NW9       30.16F
OMAHA          CLOUDY    48  46  93 N5        30.14F
LINCOLN        CLOUDY    49  43  80 NW5       30.17F
FALLS CITY     CLOUDY    46  43  89 NW8       30.13F
LAMONI         CLOUDY    47  45  93 NW6       30.11S
DES MOINES     CLOUDY    47  43  86 N5        30.11F

$$




USA.gov is the U.S. government's official web portal to all federal, state and local government web resources and services.